[[{"header":{"parameterUnit":"m.s-1","parameterCategory":1,"la1":30.2992,"la2":30.254,"lo1":-89.0895,"lo2":-89.0443,"dy":0.0025,"dx":0.0025,"nx":19,"ny":19,"refTime":"2026-05-10T09:00:00:Z","depth":0,"parameterNumber":2,"parameterNumberName":"U-component_of_WINDS"},"data":[0,0,0,-0.4282,-0.428,-0.4208,-0.4208,-0.4124,-0.4123,0,0,0,0,0,0,0,0,0,0,0,-0.431,-0.4309,-0.4282,-0.428,-0.4208,-0.4208,-0.4124,-0.4123,0,0,0,0,0,0,0,0,0,0,0,-0.431,-0.4309,-0.4309,-0.428,-0.4208,-0.4208,-0.4124,-0.4175,0,0,0,0,0,0,0,0,0,0,-0.4244,-0.4276,-0.4309,-0.4309,-0.428,-0.4208,-0.4208,-0.4178,-0.4172,-0.4161,0,-0.4154,0,-0.4137,-0.4118,-0.4118,0,0,0,-0.4275,-0.4281,-0.4256,-0.4309,-0.4279,-0.4208,-0.4239,-0.4174,-0.4168,-0.4154,-0.4152,-0.4149,-0.4136,-0.4118,-0.4118,-0.4074,-0.4074,0,0,-0.4279,-0.43,-0.426,-0.4252,-0.4265,-0.4241,-0.4237,-0.4171,-0.417,-0.4152,-0.4147,-0.4135,-0.4117,-0.4117,-0.4074,-0.4074,0,0,0,-0.4294,-0.4303,-0.4279,-0.4256,-0.4242,-0.424,-0.4234,-0.4173,-0.4164,-0.4146,-0.4134,-0.4117,-0.4116,-0.4074,-0.4074,-0.4097,0,0,0,-0.4296,-0.4311,-0.4281,-0.4293,-0.4244,-0.4207,-0.4239,-0.4168,-0.416,-0.4134,-0.4117,-0.4115,-0.4074,-0.4074,-0.4097,-0.4105,0,0,0,-0.4312,-0.4313,-0.4305,-0.4294,-0.4264,-0.4208,-0.4194,-0.4166,-0.4153,-0.4118,-0.4115,-0.4074,-0.4074,-0.4096,-0.4103,-0.41,0,0,0,-0.4335,-0.4326,-0.4306,-0.4292,-0.4265,-0.4223,-0.4194,-0.4162,-0.4135,-0.4117,-0.4074,-0.4074,-0.4096,-0.4103,-0.4099,-0.41,-0.4103,0,0,-0.4336,-0.4327,-0.4317,-0.4297,-0.4264,-0.4233,-0.4203,-0.4157,-0.4134,-0.4095,-0.4093,-0.4097,-0.4103,-0.4099,-0.411,-0.4112,0,0,0,-0.4324,-0.4317,-0.4304,-0.428,-0.4247,-0.4218,-0.4175,-0.4158,-0.4125,-0.4119,-0.4094,-0.4097,-0.4094,-0.4093,-0.4095,-0.4091,-0.4075,-0.4075,-0.4075,-0.4355,-0.4327,-0.4308,-0.4272,-0.4249,-0.4206,-0.4184,-0.4154,-0.4131,-0.4126,-0.4114,-0.4124,-0.4124,-0.4126,-0.4122,-0.4112,-0.4112,-0.4112,-0.4112,-0.4354,-0.434,-0.4311,-0.4283,-0.4253,-0.4228,-0.4186,-0.417,-0.4142,-0.413,-0.4126,-0.4116,-0.4129,-0.4124,-0.4114,-0.4114,-0.4113,-0.4113,-0.4113,-0.4371,-0.4359,-0.434,-0.4303,-0.4278,-0.424,-0.4215,-0.4188,-0.4162,-0.4158,-0.4143,-0.4142,-0.4139,-0.4153,-0.4153,-0.4153,-0.4153,-0.4153,-0.4153,-0.4396,-0.4374,-0.4357,-0.4321,-0.4303,-0.4275,-0.4231,-0.4211,-0.4183,-0.4165,-0.4165,-0.4142,-0.4136,-0.4135,-0.4154,-0.4154,-0.4153,-0.4153,-0.4153,-0.4405,-0.4399,-0.4373,-0.4355,-0.431,-0.4287,-0.4253,-0.4216,-0.4196,-0.4184,-0.4163,-0.4162,-0.4151,-0.4149,-0.4148,-0.4169,-0.4169,-0.4169,-0.4169,-0.442,-0.4412,-0.438,-0.4352,-0.4322,-0.4289,-0.4259,-0.4225,-0.4189,-0.4174,-0.4167,-0.4164,-0.4163,-0.4152,-0.415,-0.4149,-0.4169,-0.4169,-0.4169,-0.4424,-0.4412,-0.4393,-0.4359,-0.4322,-0.4291,-0.4262,-0.423,-0.4187,-0.4168,-0.4162,-0.4162,-0.4156,-0.4155,-0.4136,-0.4134,-0.4131,0,0]},{"header":{"parameterUnit":"m.s-1","parameterCategory":1,"la1":30.2992,"la2":30.254,"lo1":-89.0895,"lo2":-89.0443,"dy":0.0025,"dx":0.0025,"nx":19,"ny":19,"refTime":"2026-05-10T09:00:00:Z","depth":0,"parameterNumber":3,"parameterNumberName":"V-component_of_WINDS"},"data":[0,0,0,-1.5241,-1.5242,-1.5309,-1.5309,-1.5379,-1.5379,0,0,0,0,0,0,0,0,0,0,0,-1.521,-1.5211,-1.524,-1.5242,-1.5309,-1.5309,-1.5378,-1.5379,0,0,0,0,0,0,0,0,0,0,0,-1.521,-1.5211,-1.5211,-1.5242,-1.5309,-1.5309,-1.5378,-1.5334,0,0,0,0,0,0,0,0,0,0,-1.5271,-1.5234,-1.5211,-1.5211,-1.5242,-1.5309,-1.5309,-1.5332,-1.5336,-1.5341,0,-1.5342,0,-1.5362,-1.5383,-1.5383,0,0,0,-1.5249,-1.523,-1.5257,-1.5211,-1.5243,-1.5308,-1.5281,-1.5335,-1.534,-1.5347,-1.5343,-1.5347,-1.5363,-1.5383,-1.5383,-1.5384,-1.5384,0,0,-1.5246,-1.5217,-1.5253,-1.526,-1.5248,-1.5279,-1.5283,-1.5338,-1.5332,-1.5344,-1.5348,-1.5364,-1.5383,-1.5384,-1.5384,-1.5384,0,0,0,-1.523,-1.5214,-1.5241,-1.5256,-1.527,-1.528,-1.5285,-1.533,-1.5341,-1.5349,-1.5365,-1.5384,-1.5384,-1.5385,-1.5384,-1.5337,0,0,0,-1.5228,-1.5205,-1.5238,-1.5221,-1.5268,-1.53,-1.5275,-1.5337,-1.5344,-1.5364,-1.5384,-1.5385,-1.5385,-1.5385,-1.5339,-1.5319,0,0,0,-1.521,-1.5203,-1.5209,-1.522,-1.5248,-1.53,-1.5315,-1.5339,-1.5353,-1.5383,-1.5385,-1.5386,-1.5385,-1.5341,-1.5322,-1.5309,0,0,0,-1.5181,-1.5167,-1.5208,-1.5198,-1.5247,-1.5271,-1.5315,-1.5335,-1.5355,-1.5384,-1.5385,-1.5384,-1.5342,-1.5324,-1.5311,-1.5292,-1.5281,0,0,-1.5147,-1.5162,-1.5158,-1.5197,-1.5206,-1.5263,-1.5267,-1.5312,-1.5342,-1.5368,-1.5369,-1.5339,-1.5323,-1.531,-1.5238,-1.5229,0,0,0,-1.5137,-1.5134,-1.5143,-1.5161,-1.5196,-1.5224,-1.5272,-1.529,-1.5314,-1.535,-1.5333,-1.5324,-1.5318,-1.531,-1.5302,-1.5298,-1.538,-1.538,-1.538,-1.5045,-1.5084,-1.508,-1.5127,-1.5144,-1.5195,-1.5212,-1.5244,-1.5279,-1.5274,-1.5281,-1.5233,-1.5222,-1.5217,-1.5212,-1.5277,-1.5276,-1.5276,-1.5276,-1.4996,-1.4996,-1.5044,-1.5057,-1.5098,-1.511,-1.516,-1.5184,-1.5201,-1.5231,-1.5227,-1.5254,-1.5207,-1.5204,-1.5273,-1.5273,-1.5274,-1.5274,-1.5274,-1.4937,-1.4944,-1.4966,-1.4996,-1.5015,-1.5065,-1.5078,-1.5117,-1.5153,-1.515,-1.516,-1.5161,-1.5165,-1.5153,-1.5153,-1.5152,-1.5152,-1.5152,-1.5152,-1.4867,-1.4893,-1.49,-1.4936,-1.4953,-1.498,-1.5032,-1.505,-1.5079,-1.5106,-1.5106,-1.514,-1.5196,-1.5207,-1.5149,-1.515,-1.515,-1.5151,-1.5151,-1.4797,-1.482,-1.4829,-1.4846,-1.4893,-1.4909,-1.4959,-1.4991,-1.5012,-1.5017,-1.5054,-1.5089,-1.5107,-1.5113,-1.5122,-1.5046,-1.5046,-1.5046,-1.5046,-1.4746,-1.476,-1.4778,-1.4802,-1.4831,-1.4877,-1.4887,-1.4929,-1.4975,-1.499,-1.5008,-1.5025,-1.5029,-1.5044,-1.5052,-1.5061,-1.4971,-1.4971,-1.4971,-1.4704,-1.4723,-1.4723,-1.4769,-1.4809,-1.4842,-1.4853,-1.4879,-1.4936,-1.4969,-1.5002,-1.5006,-1.5034,-1.5042,-1.5071,-1.5082,-1.51,0,0]}]]